Hourly Data Report for May 17, 2018

DRYDEN REGIONAL
ONTARIO
Current Station Operator: NAVCAN

49°49'39.000" N
92°44'39.000" W
412.70 m
6032125
71527
YHD

Download Data

Hourly Data (May 2018)
Hourly Data Report for May 17, 2018
TIME
LST
Temp Definition
°C
Dew Point Definition
°C
Rel Hum Definition
%
Precip. Amount Definition
mm

Wind Dir Definition
10's deg

Wind Spd Definition
km/h
Visibility Definition
km
Stn Press Definition
kPa
Hmdx Definition


Wind Chill Definition


Weather Definition


00:00 3.4 2.2 92 0.0 3 8 16.1 97.39     LegendNANA
01:00 3.1 1.1 87 0.0 6 9 16.1 97.41     LegendNANA
02:00 3.4 0.5 81 0.0 8 8 16.1 97.42     LegendNANA
03:00 3.5 0.4 80 0.0 9 8 16.1 97.43     LegendNANA
04:00 3.6 0.6 81 0.0 9 9 16.1 97.45     LegendNANA
05:00 4.0 1.0 81 0.0 11 13 16.1 97.47     LegendNANA
06:00 3.9 0.9 81 0.0 12 13 16.1 97.56     LegendNANA
07:00 5.4 1.0 73 0.0 12 11 16.1 97.57     LegendNANA
08:00 7.5 -0.1 59 0.0 12 15 16.1 97.53     LegendNANA
09:00 9.4 -1.5 46 0.0 7 11 16.1 97.55     LegendNANA
10:00 11.1 -3.1 37 0.0 9 15 16.1 97.53     LegendNANA
11:00 12.2 -3.7 33 0.0 9 15 16.1 97.50     LegendNANA
12:00 13.7 -3.8 29 0.0 6 18 16.1 97.46     LegendNANA
13:00 13.5 -3.4 31 0.0 8 11 16.1 97.45     LegendNANA
14:00 14.0 -2.6 32 0.0 7 15 16.1 97.44     LegendNANA
15:00 14.9 -2.9 29 0.0 10 15 16.1 97.36     LegendNANA
16:00 15.1 -3.3 28 0.0 8 13 16.1 97.33     LegendNANA
17:00 15.0 -3.0 29 0.0 7 15 16.1 97.28     LegendNANA
18:00 14.4 -3.0 30 0.0 8 13 16.1 97.27     LegendNANA
19:00 13.1 -0.6 39 0.0 5 15 16.1 97.24     LegendNANA
20:00 12.4 -1.8 37 0.0 8 15 16.1 97.27     LegendNANA
21:00 11.5 -0.9 42 0.0 11 8 16.1 97.28     LegendNANA
22:00 9.0 4.1 71 0.0 16 17 16.1 97.39     Rain
23:00 7.1 4.6 84 1.0 14 13 16.1 97.46     Rain

Notes on Data Quality.

Legend

  • E = Estimated
  • M = Missing
  • NA = Not Available*
  • [empty] = Indicates an unobserved value
Date modified: